GEFSGL_500_meanwind_060.txt.gz
Wind_Speed
20 18 17 15 14 13 12 9 8 7 9 12 17 21 25 28 32 35 38 39 39 38 38 37 37 36 37 37 37 38 38 38 37 37 36 34 33 32 32 31 29 28 29
21 19 18 17 16 15 13 11 9 7 7 9 12 16 19 23 27 31 34 36 37 37 37 37 36 37 37 37 38 37 37 37 37 36 35 33 33 32 31 30 30 30 30
21 21 20 19 17 16 15 12 11 9 8 7 9 12 16 19 22 25 29 32 35 36 37 37 36 36 36 37 37 37 36 36 36 36 34 33 32 31 30 30 30 30 31
22 22 21 20 19 18 17 15 13 11 10 9 7 8 11 15 19 22 26 29 32 34 35 36 36 36 35 35 36 35 35 35 35 34 33 32 31 30 30 29 29 29 28
23 22 22 21 20 19 18 16 15 13 11 10 8 7 9 11 14 18 21 24 26 29 32 33 33 34 34 34 34 34 35 35 34 33 33 32 30 29 28 28 28 27 27
24 23 23 22 22 21 20 18 16 14 12 10 9 7 8 10 12 15 18 21 23 25 28 30 31 30 30 32 33 32 32 32 32 31 30 29 28 27 27 27 27 26 26
24 24 24 24 24 23 21 19 18 16 14 11 9 7 7 8 10 12 14 18 20 22 23 25 28 28 28 29 30 28 28 29 29 28 27 26 25 25 25 25 24 24 23
25 25 25 25 25 24 23 21 20 18 15 13 10 8 6 6 7 9 11 13 16 18 20 22 23 24 25 26 26 25 24 25 25 25 25 24 24 23 23 22 22 22 22
25 26 26 26 26 26 24 23 22 20 18 15 12 10 7 5 5 6 8 11 13 15 17 19 21 22 22 23 23 22 22 22 22 22 22 22 22 22 22 21 21 21 20
25 26 26 26 26 26 25 24 23 22 20 18 15 12 9 6 3 3 5 7 10 12 13 15 17 19 20 21 20 20 20 20 20 20 20 20 21 20 20 20 19 19 18
25 25 26 26 25 25 25 25 24 23 22 20 17 14 11 8 4 1 3 5 7 9 11 13 15 17 18 19 20 20 19 19 19 19 19 19 19 19 19 18 18 17 16
24 25 25 25 25 25 25 25 25 24 23 21 19 17 14 10 7 3 2 4 5 7 9 11 14 15 16 17 18 19 19 19 19 19 18 18 18 18 18 17 16 15 14
23 24 24 24 24 24 25 25 25 24 23 22 21 18 16 13 9 7 5 5 4 5 7 10 13 14 16 16 16 17 18 19 19 19 18 17 17 17 16 15 14 14 13
21 22 23 23 23 23 24 24 24 24 23 23 21 20 17 14 12 9 7 8 8 8 8 10 12 14 15 15 15 16 17 18 17 18 18 17 16 16 16 15 14 13 13
19 19 20 21 22 22 22 23 23 23 22 23 22 21 18 16 15 13 12 10 9 10 11 12 13 14 14 14 15 16 17 18 17 17 17 17 17 16 16 15 13 13 12
17 17 18 19 19 20 20 21 21 22 21 21 21 21 20 18 16 14 13 12 11 11 12 13 14 14 14 14 15 15 16 16 17 17 17 16 15 15 14 14 13 12 11
16 16 16 16 17 17 18 18 18 19 20 19 19 19 18 18 16 15 14 14 13 13 13 14 14 14 14 14 15 15 15 16 16 16 15 14 14 13 13 12 12 11 10
15 15 14 14 14 15 15 15 16 16 16 17 17 17 16 16 15 15 14 14 14 14 13 13 13 13 13 13 14 14 14 15 15 15 14 14 13 13 12 11 11 10 9
15 14 14 13 13 12 12 12 12 13 13 13 14 14 14 14 14 14 13 13 13 13 12 12 12 12 12 13 13 14 15 14 14 14 14 13 12 12 11 10 9 9 8
16 15 14 13 12 12 11 10 9 9 10 10 10 10 10 11 11 11 11 11 11 11 11 11 11 11 11 11 12 13 13 13 13 13 13 12 12 11 10 9 8 8 8
19 18 16 15 14 12 11 10 9 7 7 7 7 7 7 7 7 7 8 8 8 8 9 9 9 10 10 10 11 11 12 12 12 12 11 11 11 10 9 8 8 7 7
23 22 20 18 16 15 13 12 10 9 7 6 4 3 3 3 3 4 4 5 5 6 6 7 8 8 9 10 10 10 10 10 10 10 10 10 9 9 8 8 8 7 7
28 26 24 22 20 18 16 15 13 12 10 9 7 6 4 3 2 1 1 2 3 4 5 5 6 7 7 8 8 9 9 9 9 9 9 9 9 8 8 8 8 8 8
32 30 28 26 24 23 21 19 17 16 14 12 11 10 8 7 6 5 5 4 4 5 5 6 6 7 7 7 8 8 8 9 9 9 9 9 9 9 9 9 9 10 10
37 35 33 31 29 27 25 23 22 20 18 17 15 14 13 12 10 9 9 8 8 8 8 8 8 8 9 9 9 9 10 10 10 11 11 11 11 12 12 12 12 13 13
41 39 37 35 34 32 30 28 26 24 23 21 20 18 17 16 15 14 13 12 12 11 11 11 11 11 12 12 12 12 13 13 14 14 14 14 15 15 15 15 16 16 16

GEFSGL_500_meanwind_066.txt.gz
Wind_Speed
23 23 22 21 20 19 18 16 15 14 13 13 14 16 20 23 28 31 34 38 40 42 44 45 46 45 44 42 42 41 39 39 38 37 38 39 37 37 36 36 34 32 31
24 24 23 23 22 21 19 17 16 15 13 13 13 14 17 19 22 26 30 34 37 40 43 44 45 45 45 44 42 40 40 40 40 39 38 39 39 38 38 36 36 35 34
25 25 25 24 23 22 21 19 17 16 14 13 12 13 14 17 19 22 26 29 33 36 39 42 42 44 45 43 42 40 40 40 41 41 39 39 39 39 39 38 37 35 34
26 26 26 25 24 23 22 20 19 18 16 15 12 12 12 14 16 19 23 27 30 33 35 37 39 40 42 43 42 41 40 39 39 40 39 39 39 40 38 37 37 36 35
27 27 26 26 26 25 23 21 20 19 18 16 13 11 10 12 14 16 19 22 26 29 32 34 34 36 38 39 39 39 39 39 39 39 38 38 38 38 38 38 37 36 34
27 27 27 27 27 26 25 23 21 20 18 16 13 11 10 9 10 12 14 18 21 25 27 30 32 34 35 36 37 37 37 38 38 39 39 38 38 38 38 37 36 35 33
28 28 28 28 27 27 26 25 23 21 19 17 15 12 10 8 8 10 11 14 17 20 24 26 28 30 32 33 34 34 35 35 36 37 37 38 37 37 36 35 34 32 30
28 28 28 28 28 28 27 26 25 23 21 19 17 14 11 9 7 8 9 11 13 16 20 23 25 27 29 30 31 32 33 33 34 34 34 35 36 35 35 34 32 30 28
28 28 28 28 28 29 28 27 26 24 23 21 19 15 13 10 8 7 7 8 10 13 15 19 22 24 26 27 29 30 31 31 33 33 33 33 33 32 32 32 31 29 26
27 28 28 28 28 28 28 27 26 26 24 23 20 17 14 11 9 6 4 5 7 9 12 14 18 20 23 25 26 27 28 28 29 29 28 28 28 28 27 26 26 26 25
26 27 28 28 28 28 28 27 27 27 26 24 21 18 15 12 10 7 4 3 4 6 9 11 14 17 19 22 23 24 25 26 26 26 26 25 23 23 23 23 23 23 22
25 26 27 27 28 28 28 27 27 27 26 25 23 20 17 13 10 8 6 4 1 2 5 8 11 14 16 17 18 19 20 21 21 22 22 22 22 22 22 21 21 21 20
24 25 25 26 26 27 27 27 26 26 26 25 23 21 18 15 12 10 8 6 4 3 4 6 8 10 12 14 15 16 18 18 19 20 20 20 21 21 20 20 19 19 19
24 25 25 25 25 26 26 25 25 25 25 24 23 21 19 17 14 12 10 8 7 6 5 6 7 9 10 12 13 15 17 17 17 18 19 19 19 19 19 18 18 18 18
24 24 24 24 24 24 24 24 24 24 23 23 21 20 18 17 15 13 11 10 8 8 7 6 7 8 9 10 12 13 15 15 15 16 17 18 18 18 17 17 18 18 17
25 24 24 24 24 23 23 23 22 22 21 21 19 18 17 16 14 13 11 9 8 7 6 6 7 8 9 10 11 12 13 13 13 15 15 16 17 17 17 17 17 16 16
26 25 25 24 24 23 23 22 21 20 19 18 17 16 15 14 13 12 11 9 8 7 6 6 6 7 8 9 10 10 11 13 14 15 16 16 16 16 16 16 16 15 15
28 27 26 25 24 23 23 22 21 20 18 17 16 14 13 12 11 10 9 8 7 6 6 6 6 7 8 8 9 10 10 11 13 14 15 16 16 16 15 15 15 14 14
30 29 28 27 26 25 23 22 21 20 18 17 15 13 12 11 9 8 6 6 5 4 4 4 5 6 7 8 8 9 10 11 12 13 14 15 15 15 15 15 14 13 13
32 31 30 29 28 26 25 24 23 21 19 17 15 13 12 10 8 7 6 4 3 2 2 3 4 5 6 7 8 9 10 10 11 12 13 13 13 13 13 13 13 12 12
36 34 33 32 30 29 28 26 25 23 21 19 17 15 13 11 10 8 7 5 3 2 1 2 3 4 6 7 8 9 10 10 11 12 12 12 12 12 12 12 12 11 11
39 38 36 35 33 32 31 29 28 26 24 22 20 18 16 14 13 11 9 8 7 6 5 5 6 6 7 8 8 9 10 11 11 11 12 12 12 12 12 12 12 11 11
43 42 40 39 37 36 34 33 31 30 28 26 24 22 20 18 17 15 14 12 11 10 10 10 9 9 9 10 10 10 11 11 12 12 12 12 13 13 13 13 12 12 13
47 46 45 43 42 40 39 37 36 34 32 30 29 27 25 23 21 20 18 17 15 14 13 13 13 12 12 12 12 13 13 13 13 13 13 13 13 14 14 14 14 14 14
50 50 49 48 47 45 44 42 40 39 37 35 33 31 30 28 26 24 23 21 20 19 18 17 16 16 16 15 15 15 15 15 15 15 15 15 15 15 15 15 15 15 15
53 53 53 52 52 50 49 47 45 43 42 40 38 36 34 32 30 29 27 26 25 23 22 21 21 20 20 19 19 19 19 18 18 18 18 17 17 17 17 17 18 18 18

GEFSGL_500_meanwind_072.txt.gz
Wind_Speed
25 25 24 23 23 22 21 20 18 17 16 15 15 15 16 19 21 25 29 31 34 37 40 41 43 45 46 45 45 43 42 42 43 42 40 38 39 39 39 38 36 35 35
26 26 25 24 23 23 22 22 20 19 18 17 16 15 14 15 18 20 24 28 32 35 37 40 42 43 44 45 45 45 44 43 43 43 42 40 38 39 40 39 38 37 36
27 27 26 26 25 24 23 23 22 21 20 19 17 15 14 14 15 17 20 23 27 31 34 37 39 42 42 43 44 45 45 43 43 43 43 42 41 40 40 39 38 37 36
27 27 27 27 26 25 25 24 24 23 21 20 18 15 14 13 13 15 17 20 23 26 30 33 36 39 40 42 44 45 46 45 44 44 44 44 42 41 41 40 39 38 37
26 27 27 27 27 27 26 25 25 24 23 21 18 16 14 12 12 13 16 19 21 24 27 30 33 36 38 41 42 44 45 46 44 44 44 44 43 42 41 40 40 40 39
26 26 27 27 28 28 27 26 26 25 24 23 20 17 15 12 11 11 13 16 19 21 24 27 30 32 35 37 40 42 43 44 45 44 43 43 43 43 42 40 40 41 40
25 26 27 27 28 28 28 28 27 26 25 24 22 19 16 13 11 10 11 12 15 17 20 24 27 29 32 34 36 39 41 42 42 41 41 41 41 41 43 43 41 41 40
25 26 27 27 28 28 28 28 28 27 26 25 23 21 18 15 13 10 8 9 10 13 16 20 23 26 28 31 34 35 37 39 39 39 39 39 40 40 41 42 41 40 39
25 26 27 27 28 28 28 28 29 28 27 25 24 22 19 16 14 12 10 8 9 10 13 16 19 22 25 28 31 34 35 36 37 38 38 38 40 39 38 37 37 37 37
25 26 26 27 27 28 28 28 28 28 28 26 25 23 21 18 15 13 11 9 8 9 10 13 15 19 22 24 28 31 32 33 34 35 36 35 36 37 36 35 34 35 34
25 25 26 26 26 27 27 27 28 28 27 26 25 24 22 19 17 14 12 10 8 7 8 10 12 15 18 19 23 26 29 30 32 33 33 34 34 34 34 34 33 33 34
24 25 25 25 26 26 26 26 27 27 27 26 25 24 23 20 18 15 14 11 8 6 6 7 9 11 14 16 18 22 25 26 29 31 32 32 32 32 32 32 31 31 32
25 25 25 25 25 25 25 25 25 25 25 25 25 24 22 21 19 17 15 12 9 6 5 4 6 8 10 12 14 17 21 23 25 26 27 28 29 30 30 30 30 29 29
25 25 25 25 25 25 24 25 25 24 24 24 24 23 22 21 19 17 15 13 10 8 6 4 4 6 8 10 12 15 17 20 23 24 26 27 27 28 29 29 29 29 30
26 25 25 25 25 24 24 24 24 24 23 23 22 22 21 20 19 17 15 13 10 9 7 5 3 3 6 9 11 12 14 16 18 20 23 25 27 27 28 29 29 28 28
27 27 26 26 25 25 24 24 23 23 23 22 22 21 20 19 17 16 15 13 11 9 7 5 3 3 3 6 9 11 12 14 16 18 20 22 24 25 26 26 26 26 26
28 28 27 27 27 26 25 24 23 23 22 22 21 20 19 18 17 15 14 13 11 9 7 5 5 4 3 5 8 10 11 13 14 16 18 21 22 23 24 24 24 25 25
29 29 29 28 28 27 27 26 25 24 23 22 21 20 19 18 17 15 14 13 11 9 8 6 5 4 4 5 7 10 11 13 14 15 16 18 20 21 22 23 23 23 23
31 31 30 30 30 30 29 29 28 27 26 24 23 22 21 19 18 17 15 13 12 10 9 8 7 6 5 6 7 9 10 12 13 15 16 18 19 20 20 21 22 22 22
33 33 33 32 32 32 32 31 31 30 29 28 26 25 23 22 20 19 17 16 15 13 11 10 9 9 8 8 9 10 11 12 13 14 16 17 19 20 19 20 21 21 21
35 35 35 35 35 35 35 34 34 33 32 31 30 29 28 26 24 22 21 19 18 16 15 13 12 12 12 11 11 11 12 13 13 14 15 16 18 19 20 20 20 20 20
37 37 37 37 37 38 38 38 37 37 36 36 35 34 33 31 28 27 25 23 22 20 19 18 17 16 15 15 15 14 14 14 15 15 16 17 18 19 20 20 20 21 21
39 39 39 39 40 40 40 41 41 41 40 40 40 39 38 36 35 32 30 29 27 26 24 22 21 20 19 19 18 18 18 18 18 18 18 19 19 20 20 21 21 21 21
43 43 43 43 43 43 44 44 44 45 45 45 45 44 43 42 40 39 37 35 33 31 29 28 27 25 24 23 22 22 21 21 21 21 21 21 22 22 22 22 22 22 22
46 46 47 47 47 48 48 48 48 49 49 50 50 50 49 48 46 45 43 41 39 37 35 33 32 31 30 29 28 27 26 25 25 25 25 24 24 24 25 25 25 24 24
49 50 50 51 51 52 52 52 52 52 52 53 54 54 54 53 52 51 49 47 45 43 41 39 37 36 34 33 32 32 31 30 29 29 29 29 28 28 28 28 27 27 26

GEFSGL_500_meanwind_078.txt.gz
Wind_Speed
25 26 26 26 26 26 25 25 24 23 22 21 19 17 16 16 16 16 18 20 22 25 27 29 31 33 36 38 39 39 40 40 39 39 40 39 38 38 39 40 40 39 37
25 25 26 26 26 26 26 27 26 26 24 22 20 19 17 15 14 14 16 17 19 21 24 27 29 32 35 36 38 39 39 40 41 40 41 40 39 39 39 38 39 38 37
24 25 25 26 26 26 27 27 27 27 26 24 22 20 18 17 15 14 14 15 16 18 21 24 27 29 32 35 36 38 39 40 40 40 41 41 41 40 40 40 39 38 38
23 24 25 25 26 26 27 27 28 28 26 25 23 22 20 18 16 14 14 14 14 16 18 21 23 27 29 32 33 35 38 39 39 40 41 41 41 42 41 41 40 39 38
23 24 24 25 26 26 26 27 27 28 27 26 24 23 21 19 17 16 14 13 12 13 16 18 21 24 26 28 31 33 35 37 38 39 40 41 41 42 42 41 40 40 40
23 24 24 25 25 26 26 27 27 27 27 26 25 24 23 21 19 17 15 13 11 11 13 16 18 21 24 26 28 31 33 34 36 38 39 40 40 40 41 41 41 41 40
23 24 24 25 25 26 26 27 27 27 27 26 26 25 24 23 20 18 15 13 11 11 12 14 16 18 21 24 26 29 30 32 34 36 37 38 39 41 40 40 41 42 42
24 24 24 25 25 25 26 26 27 27 27 26 26 25 25 24 23 20 16 14 12 11 11 12 14 16 18 20 22 25 28 30 32 34 34 35 37 39 40 40 41 41 42
25 25 25 25 26 26 26 26 26 27 27 27 26 25 25 24 23 21 18 15 13 11 10 10 11 12 14 17 19 22 25 27 30 32 33 34 35 36 37 38 39 40 40
26 26 26 26 26 26 26 26 26 26 26 27 27 26 25 24 23 21 19 16 14 12 10 9 10 10 12 14 17 19 22 24 26 29 31 32 34 35 35 36 37 38 38
27 27 27 27 27 26 26 26 26 26 26 26 26 26 25 24 23 21 19 17 16 13 11 9 9 10 12 13 15 17 19 22 24 26 29 31 32 33 35 35 34 35 36
28 27 27 27 27 27 26 26 26 26 26 26 25 25 25 24 23 22 20 18 17 15 13 11 10 10 11 11 13 15 17 19 22 24 26 28 30 31 33 33 33 34 35
28 28 27 27 27 27 27 27 26 26 25 25 25 25 25 24 23 22 20 19 17 16 14 12 11 10 10 10 11 13 15 17 19 21 24 25 27 29 30 32 32 33 34
29 28 28 28 27 28 28 27 27 27 26 25 25 24 24 24 23 22 20 19 18 17 15 13 12 11 11 11 11 12 13 15 17 19 20 22 24 27 28 29 31 32 33
29 29 29 29 28 28 28 28 28 28 27 27 26 25 25 24 24 23 22 20 19 18 16 14 13 12 12 11 11 12 12 14 15 18 19 20 22 24 26 27 28 29 30
29 29 29 29 29 29 29 28 29 29 29 28 28 27 26 26 25 24 23 22 20 19 18 16 15 14 13 13 12 12 12 13 14 16 17 18 20 21 22 24 25 26 27
30 30 30 30 30 30 29 29 29 29 30 30 30 29 29 28 27 26 25 24 23 21 20 18 18 17 16 15 14 14 13 13 13 14 16 18 19 20 21 22 24 25 27
32 31 31 31 31 31 30 30 30 30 30 30 30 30 30 30 29 29 28 27 25 24 23 21 20 19 18 17 16 15 15 14 14 14 15 17 18 19 21 23 24 24 26
33 32 32 31 31 31 31 32 32 32 32 31 31 31 31 31 31 31 30 29 28 27 26 24 23 21 20 19 18 17 17 16 16 16 16 16 17 18 19 21 23 24 25
33 33 32 32 32 32 33 33 34 34 34 34 34 34 33 33 33 33 33 32 31 31 30 28 27 25 23 21 20 20 19 18 18 18 18 18 18 18 20 21 22 24 25
34 34 34 34 34 35 35 36 36 36 36 36 37 37 37 37 36 36 36 36 35 34 34 32 31 29 28 26 24 23 22 21 20 20 19 19 20 20 21 22 22 23 24
36 35 35 35 36 37 38 38 39 39 39 40 40 40 40 40 40 40 40 40 39 39 38 37 35 34 33 30 29 28 26 25 24 24 22 21 21 21 21 22 24 25 26
37 37 37 38 38 39 40 41 42 42 43 43 43 43 44 44 44 44 44 43 43 43 42 42 40 39 38 36 34 33 32 30 29 28 27 26 25 25 24 25 25 26 27
39 39 40 40 41 42 43 44 45 45 46 46 47 47 47 47 47 47 47 47 46 47 46 46 45 44 43 41 40 38 36 35 34 33 32 30 29 28 27 27 27 27 27
41 41 42 43 44 45 46 47 48 48 49 50 50 50 51 51 50 50 50 49 49 50 50 50 50 49 48 47 45 43 41 39 39 38 37 35 34 32 31 30 30 29 29
42 43 44 46 47 48 49 50 51 52 53 53 54 54 54 54 54 54 53 53 52 52 52 53 53 52 51 51 50 48 47 45 43 42 42 40 38 37 35 34 34 33 32

GEFSGL_500_meanwind_084.txt.gz
Wind_Speed
21 22 22 23 23 23 23 23 23 22 22 22 21 19 17 14 13 13 13 13 15 17 21 24 27 29 31 35 37 38 39 40 39 42 43 42 43 43 43 43 42 41 40
21 22 22 22 23 23 23 23 23 22 22 22 22 21 19 17 15 14 13 13 13 14 17 20 24 27 29 32 35 36 38 39 40 41 42 42 42 42 43 44 44 43 42
22 22 22 22 23 23 23 23 23 22 22 22 22 22 20 19 17 16 15 13 12 12 13 16 19 23 27 29 31 34 36 37 38 40 41 42 42 42 42 43 44 43 42
22 22 22 22 23 23 23 23 23 23 23 23 23 22 21 20 19 17 16 14 13 12 12 13 15 19 23 26 28 31 33 35 37 38 40 41 41 43 42 43 43 43 43
21 22 22 23 23 23 23 23 23 23 23 23 23 22 22 21 20 18 17 15 13 12 11 11 12 15 18 22 25 27 30 32 34 36 38 40 41 41 42 42 43 43 43
22 22 23 23 23 23 23 23 23 23 23 23 23 22 22 21 21 19 18 16 14 11 10 9 10 12 15 18 22 25 27 29 31 33 35 38 39 39 40 42 42 42 42
23 23 23 23 23 23 23 23 23 23 23 23 23 22 21 21 20 19 18 16 14 12 10 9 9 10 12 14 18 22 25 27 29 31 32 35 37 39 39 40 41 42 42
23 24 24 24 24 23 23 23 23 23 23 23 23 22 21 20 20 19 18 16 14 12 11 10 9 9 11 13 16 19 22 25 27 29 30 33 35 36 37 38 39 40 41
24 25 25 24 24 24 23 23 23 23 23 23 23 22 22 20 19 18 18 16 15 14 12 11 10 10 10 12 13 16 19 23 25 27 29 30 33 34 36 37 39 40 40
25 26 26 25 24 24 23 23 23 23 23 22 22 22 22 21 20 19 17 16 16 15 13 12 11 11 11 11 12 14 16 19 22 24 27 28 31 33 35 36 38 39 40
26 26 26 26 25 24 23 23 23 23 23 22 22 22 22 21 21 19 18 17 16 15 15 14 13 12 12 12 12 13 15 17 19 22 24 26 28 30 33 35 37 38 38
27 27 27 26 26 25 24 24 23 23 23 23 22 22 22 22 21 20 19 18 17 16 16 15 14 13 13 13 13 13 14 16 18 19 22 25 27 28 30 32 34 36 37
28 28 27 27 26 26 25 25 24 24 23 23 23 23 22 22 22 21 20 19 18 17 17 16 16 15 15 14 14 14 14 15 17 18 20 22 24 26 28 30 31 32 33
29 29 28 27 27 27 26 25 25 24 24 23 23 23 23 23 22 22 22 21 21 20 19 18 17 17 16 16 16 16 16 16 17 18 19 21 23 24 26 28 30 30 31
30 30 29 28 28 27 27 26 26 25 24 23 23 23 23 23 23 23 22 22 22 22 21 20 20 19 19 18 18 18 18 18 18 18 20 21 22 23 24 26 29 30 31
31 31 30 30 29 28 28 27 26 26 25 25 24 24 24 24 24 23 23 23 23 24 23 23 22 22 21 21 21 21 21 21 20 20 21 22 23 24 25 26 28 29 30
33 32 31 30 30 28 28 28 28 28 27 26 26 26 26 26 26 25 25 26 26 26 26 25 25 25 24 24 24 23 23 23 23 23 23 24 24 25 26 27 28 28 29
33 33 32 31 30 29 29 28 28 29 29 29 29 29 29 29 29 28 28 28 28 28 28 28 28 28 27 27 26 26 26 26 26 25 25 25 25 26 26 27 28 28 29
34 33 32 32 31 31 31 30 30 29 30 30 31 31 31 31 31 31 31 31 31 31 31 31 31 31 31 30 30 30 29 29 28 28 28 28 27 28 28 28 28 29 29
35 34 33 33 33 32 32 32 31 31 31 31 32 32 32 33 34 34 34 34 35 35 35 35 35 35 34 34 34 33 33 33 32 32 31 31 30 30 30 30 30 30 30
36 35 34 34 34 34 34 33 33 33 33 33 34 34 34 35 35 36 37 37 38 38 38 38 38 38 38 38 38 38 37 37 36 35 34 34 33 33 33 33 32 32 31
37 36 35 35 35 35 35 34 34 35 35 36 36 37 37 38 38 39 40 40 41 41 41 41 41 41 41 41 41 41 41 41 41 39 38 37 37 36 35 34 34 34 34
38 37 37 37 37 36 36 36 36 36 37 38 38 39 40 41 42 42 43 43 44 44 44 44 45 45 45 45 45 45 45 45 45 44 43 42 41 39 38 38 37 37 36
39 38 38 38 38 37 37 37 38 38 39 40 41 41 42 43 44 45 46 46 47 47 48 49 49 49 50 50 50 49 49 49 49 49 48 46 46 44 43 41 41 40 39
40 40 39 39 39 38 38 39 40 40 41 41 43 44 44 45 46 48 49 50 50 51 52 53 53 54 53 53 53 52 52 52 52 52 52 51 50 49 48 46 45 43 42
41 40 40 40 39 39 40 40 41 41 42 43 45 46 47 48 49 51 52 53 54 55 56 57 57 57 57 56 56 56 55 55 55 54 54 54 54 52 52 50 48 47 46

GEFSGL_500_meanwind_090.txt.gz
Wind_Speed
18 19 19 20 20 20 20 20 19 19 19 19 18 17 16 15 13 13 12 12 12 12 13 15 17 19 22 25 28 30 33 35 37 39 40 42 43 43 44 43 43 43 42
17 18 19 20 20 20 20 19 19 19 19 19 18 18 17 15 14 14 13 13 12 11 11 12 14 16 18 22 25 27 30 33 35 37 39 40 41 43 44 44 45 44 43
17 19 19 20 20 20 20 19 19 20 20 19 18 18 17 16 15 15 15 14 12 11 10 10 11 13 15 17 21 24 27 29 32 35 36 38 39 40 41 43 44 45 45
18 19 20 20 20 20 20 20 19 19 19 19 19 18 18 17 16 16 15 14 13 11 9 9 10 11 12 14 16 20 23 26 30 33 35 36 36 38 40 40 41 42 43
18 19 20 20 20 20 20 20 19 19 19 19 19 19 18 17 17 16 16 14 13 11 9 9 9 10 10 12 14 16 19 22 26 30 33 34 36 37 38 39 39 41 42
18 19 20 20 20 20 20 20 20 20 19 19 19 19 18 18 17 16 16 15 13 11 10 9 8 9 10 11 13 14 16 19 22 25 29 32 34 36 38 39 39 40 42
18 19 20 20 20 21 21 21 21 20 20 19 19 18 18 18 17 16 16 15 14 12 11 10 9 9 10 11 12 13 15 17 20 22 25 28 31 33 36 37 38 39 40
18 19 20 20 21 21 21 21 21 21 20 19 19 18 18 18 17 16 16 15 14 13 12 11 10 10 10 10 11 13 14 16 17 19 21 24 28 30 33 35 36 37 39
19 20 20 21 22 21 21 21 21 21 20 19 19 18 18 17 17 17 16 15 14 14 13 13 12 11 11 11 11 13 14 15 16 18 20 22 24 27 29 32 34 35 37
19 20 21 22 22 22 22 22 22 21 21 20 19 19 18 18 17 17 16 16 15 14 14 13 13 13 12 12 12 12 13 15 16 17 19 21 23 25 27 29 31 34 35
20 21 22 23 23 23 23 23 22 22 22 21 20 19 19 18 18 17 17 16 16 15 15 14 14 13 13 13 13 13 13 14 15 17 18 20 22 23 25 27 30 31 33
21 22 23 24 24 24 23 23 23 23 22 21 21 20 20 19 19 18 18 17 17 16 16 15 15 15 14 15 15 15 15 15 16 17 18 19 21 23 24 26 28 30 31
22 23 24 24 25 25 24 24 24 23 23 22 21 21 21 21 20 20 19 18 18 17 17 17 16 16 16 17 17 16 16 17 17 18 18 19 21 23 24 26 28 30 30
23 24 25 25 26 26 25 25 25 24 23 23 22 22 22 22 21 21 21 20 20 20 19 19 18 18 18 19 19 19 19 19 19 20 20 21 22 23 24 26 28 29 30
25 26 26 27 27 27 26 26 26 25 24 24 23 23 23 23 22 22 22 22 22 22 22 21 21 21 20 21 21 21 22 22 22 23 23 24 24 25 25 26 28 29 30
26 27 28 28 28 28 28 27 26 26 25 25 25 25 24 24 24 24 24 24 24 24 24 24 24 24 24 24 24 25 25 25 25 25 26 26 27 27 27 27 28 29 30
28 28 29 29 30 30 30 29 28 28 27 27 26 26 25 25 25 25 25 25 25 26 26 26 26 27 27 27 27 27 28 28 28 28 28 28 29 30 30 30 29 30 31
29 30 30 31 31 31 31 31 31 30 29 29 28 28 27 26 26 26 27 27 28 28 28 28 28 29 29 29 30 30 30 31 31 32 32 32 32 32 32 33 33 32 32
31 31 32 32 32 33 33 33 32 32 31 31 31 30 29 29 29 28 29 29 30 30 31 31 31 31 32 32 33 33 33 33 33 34 34 35 35 35 35 36 36 36 36
33 33 34 34 34 34 34 34 34 33 33 33 33 33 32 32 32 31 31 32 32 33 33 34 34 34 35 35 35 36 36 36 36 37 37 37 38 38 39 39 39 39 39
35 35 36 36 36 36 36 36 35 35 35 35 34 34 34 34 34 34 34 35 35 36 36 37 37 38 38 39 39 39 39 39 40 40 40 41 41 41 41 41 42 42 42
37 38 38 38 38 38 38 38 37 37 36 36 36 36 36 36 36 36 37 37 38 39 39 40 40 41 42 42 43 43 43 44 44 45 45 45 45 46 45 45 45 45 46
40 40 40 40 41 41 40 39 39 38 38 37 37 38 38 38 38 39 39 40 41 41 42 42 43 44 45 46 47 47 48 49 49 50 50 50 50 50 50 50 49 49 48
42 42 43 43 42 42 41 40 40 39 39 39 39 39 39 40 40 41 41 42 42 43 44 45 46 47 48 50 51 52 53 54 54 54 54 54 54 53 53 53 53 52 52
44 44 44 44 43 43 42 41 41 41 40 40 40 40 41 41 41 42 43 43 44 45 46 48 49 50 52 53 54 54 55 55 56 56 56 56 56 56 56 56 55 55 54
45 45 45 44 44 43 43 42 42 42 41 41 41 41 41 42 42 43 44 45 46 47 48 50 51 53 54 55 55 56 56 57 58 58 58 58 57 57 57 56 56 55 55

GEFSGL_500_meanwind_096.txt.gz
Wind_Speed
11 12 13 14 15 15 15 15 14 14 14 14 13 12 12 11 10 9 8 8 8 9 9 11 14 16 17 19 21 24 26 28 30 32 34 35 37 38 39 40 41 42 42
11 12 13 14 14 14 15 15 14 14 14 14 14 13 12 12 11 10 9 9 9 10 10 11 12 14 16 17 19 22 24 26 27 30 32 34 36 37 39 40 41 42 42
11 12 13 13 14 14 15 15 15 15 15 15 14 14 13 12 12 11 10 9 9 9 10 10 10 12 13 15 17 19 21 23 25 28 30 32 34 35 37 39 40 41 42
11 11 12 13 14 15 15 15 15 15 16 15 15 14 13 13 12 12 11 11 10 10 9 9 9 10 11 13 15 16 18 19 21 24 27 30 32 33 34 36 38 40 41
11 11 12 13 14 15 15 15 15 15 15 15 15 15 14 14 13 12 12 11 11 10 9 8 8 8 9 11 13 14 15 16 18 20 22 25 29 31 32 33 35 36 38
11 11 12 13 14 15 15 16 15 15 15 15 15 15 15 14 14 13 12 12 11 10 10 9 8 8 9 10 11 13 14 16 17 18 20 22 25 28 30 31 33 34 35
11 12 13 13 14 15 16 16 16 16 16 15 16 16 15 14 14 14 13 12 11 11 10 10 8 9 10 10 11 13 15 16 17 18 20 21 23 26 29 31 32 33 34
12 13 13 14 14 15 16 16 16 16 16 16 16 16 16 15 15 14 14 13 12 11 11 10 10 9 9 10 11 12 14 15 17 17 18 20 22 24 26 29 31 33 35
13 13 14 14 15 15 16 17 17 17 17 17 17 17 16 16 15 15 15 14 14 13 12 12 11 11 11 11 12 12 14 15 17 17 18 18 20 22 25 27 29 31 32
15 14 15 15 16 16 17 17 18 18 18 18 18 17 17 16 16 16 16 15 15 14 14 13 13 12 12 13 13 13 14 15 17 17 18 19 19 21 23 25 27 29 31
16 16 16 16 17 17 18 18 18 18 19 19 19 18 18 17 17 17 17 17 16 16 15 15 14 14 14 14 14 15 15 16 17 18 19 20 20 21 22 24 25 26 29
18 18 17 18 18 18 18 19 19 19 19 19 19 19 19 18 18 18 18 18 17 17 17 16 16 15 16 16 16 16 17 17 18 19 19 20 21 22 23 24 25 26 27
20 19 19 19 19 19 20 20 20 20 20 20 20 20 20 20 20 19 19 19 18 18 18 17 17 17 17 17 18 18 19 19 19 20 21 22 23 23 24 25 26 27 28
22 21 21 21 21 21 21 22 22 21 21 21 21 22 22 22 21 21 20 20 19 19 19 19 19 19 20 20 20 20 21 22 22 22 23 24 25 25 26 27 28 29 30
24 23 23 22 22 22 23 23 23 23 23 23 23 23 24 24 23 23 22 22 21 21 21 21 21 21 22 22 22 23 24 24 24 25 25 26 26 27 28 28 29 30 31
26 25 25 24 24 24 24 24 24 24 24 25 25 25 26 26 25 25 25 24 24 23 23 23 23 23 24 24 24 25 26 26 26 27 28 28 29 29 30 31 32 32 33
28 27 27 26 26 26 26 26 26 26 26 26 27 27 27 27 27 27 27 27 26 26 25 25 26 26 26 26 27 27 27 28 29 30 30 31 32 32 33 34 34 35 36
29 29 29 28 28 28 28 28 28 28 28 28 29 29 29 29 29 29 28 28 28 28 28 28 28 28 28 29 29 29 30 31 32 32 33 34 34 35 36 36 37 38 38
31 31 31 30 30 29 29 29 30 30 30 30 30 30 30 30 30 30 30 29 29 29 30 30 30 30 31 31 32 32 33 33 34 35 35 36 36 37 38 39 40 40 41
33 32 32 32 32 32 32 32 32 32 32 32 32 32 32 32 32 31 31 31 31 31 31 32 32 33 33 34 34 35 35 36 36 36 37 38 39 40 41 42 42 43 43
35 35 34 34 34 34 34 34 34 34 34 34 34 34 34 34 34 34 34 33 33 33 33 34 34 35 36 36 37 37 37 38 38 39 40 41 42 43 43 44 44 45 45
37 37 36 36 36 36 36 36 36 36 36 36 36 36 36 36 35 35 35 35 35 35 35 35 36 37 38 38 38 39 39 40 41 42 43 44 45 45 46 46 47 47 47
40 39 39 38 38 38 38 38 38 38 38 38 38 38 38 37 37 37 36 36 36 36 37 37 37 38 38 39 40 41 41 42 43 44 45 46 47 48 48 48 48 49 49
42 41 41 41 40 40 40 40 40 40 40 40 40 39 39 39 38 38 37 37 38 38 38 38 39 39 40 41 42 43 43 44 46 47 48 49 50 50 50 50 50 51 51
44 43 43 42 42 42 42 42 42 41 41 41 41 40 40 40 39 39 39 39 39 39 40 40 40 41 42 42 44 45 46 47 48 49 50 51 51 51 50 50 50 50 50
46 45 44 44 43 43 43 43 43 42 42 42 41 41 41 41 40 40 39 39 39 40 41 41 42 43 43 44 45 46 47 48 50 51 51 51 51 51 51 51 52 52 52

GEFSGL_500_meanwind_102.txt.gz
Wind_Speed
11 12 13 14 15 16 16 16 16 16 15 14 14 14 14 12 11 10 9 9 8 8 8 8 9 10 11 13 15 17 18 19 21 22 24 26 27 28 30 32 33 34 35
11 12 12 13 15 15 16 16 15 15 15 14 14 14 14 13 12 11 10 10 9 9 8 8 9 10 11 13 15 16 18 19 20 21 23 24 25 27 29 31 33 34 35
11 11 12 13 14 15 15 15 15 16 15 14 14 14 14 13 13 12 11 11 10 10 9 10 10 11 11 12 15 17 18 19 19 20 21 23 24 25 26 28 31 33 34
11 12 12 13 14 14 14 15 16 16 15 15 15 14 14 14 13 13 12 12 11 10 10 10 10 11 11 11 13 15 17 18 18 19 20 21 22 23 24 26 28 30 32
12 12 12 13 13 13 14 15 15 16 16 15 15 15 15 14 14 14 13 13 12 11 11 11 11 10 11 11 12 13 15 16 17 18 19 21 22 23 24 25 26 27 30
13 13 13 13 13 14 14 15 15 16 16 16 16 15 15 15 15 15 14 14 13 12 12 11 11 11 11 11 11 12 13 14 16 17 18 20 22 22 23 24 25 27 27
15 14 14 14 14 14 14 15 15 15 16 16 16 16 16 16 15 15 15 15 14 14 12 12 11 11 11 11 11 12 12 14 15 16 17 18 19 20 22 23 24 25 26
17 16 16 15 15 15 15 15 15 15 16 16 16 16 16 16 16 16 16 15 15 14 13 12 12 11 11 11 11 11 12 12 13 15 16 17 17 18 20 21 22 24 25
19 18 17 17 16 16 16 15 16 16 16 16 16 16 16 16 16 16 16 16 16 15 14 13 13 12 12 11 12 12 13 13 14 15 16 18 18 18 19 21 22 23 24
21 20 19 19 18 17 17 17 16 17 17 17 16 16 16 16 16 16 17 17 16 16 15 14 14 13 13 13 13 13 14 14 14 15 16 17 18 19 20 21 22 23 24
23 22 22 21 20 19 19 18 18 18 18 17 17 17 17 17 17 17 17 17 17 17 16 16 15 15 14 14 14 15 15 15 15 16 17 17 18 19 20 21 22 23 24
25 24 24 23 22 21 21 20 20 19 19 18 18 18 18 18 18 18 18 19 19 18 18 17 16 16 16 15 15 16 16 16 16 17 18 18 20 21 21 22 22 23 25
27 27 26 25 24 23 23 22 21 21 20 20 20 19 19 19 19 20 20 20 20 19 19 18 18 17 17 17 17 17 18 18 18 18 19 20 21 21 22 23 24 25 26
29 29 28 27 26 26 25 24 23 23 22 22 21 21 20 20 20 20 21 21 20 20 20 19 19 19 18 18 19 19 19 19 20 20 21 22 23 23 24 24 25 26 27
32 31 30 29 28 27 27 26 25 24 24 23 23 22 22 21 21 21 21 21 21 21 20 20 20 20 20 20 20 21 21 22 22 22 23 23 24 25 26 26 27 27 28
33 33 32 31 30 29 28 28 27 26 25 25 24 24 23 23 23 23 23 22 22 22 22 22 22 22 22 22 22 22 23 24 24 25 25 26 27 27 28 29 30 30 31
35 34 33 33 32 31 30 29 28 28 27 27 26 25 25 25 24 24 24 24 24 24 24 24 24 24 24 24 24 24 25 25 26 27 27 28 29 30 31 31 32 33 34
36 36 35 34 33 32 32 31 30 29 29 28 28 27 27 26 26 26 26 26 26 26 26 26 26 26 26 26 26 27 27 28 28 29 29 30 31 32 33 34 34 35 36
38 37 36 35 34 34 33 32 32 31 30 30 29 29 29 28 28 28 28 28 28 28 29 29 28 28 28 28 28 29 29 29 30 30 31 32 33 34 35 35 36 36 37
40 39 38 36 35 35 34 34 33 33 32 31 31 31 30 30 30 30 30 30 30 31 31 31 31 31 30 30 31 31 31 31 32 32 33 34 35 35 36 37 38 38 39
42 41 40 38 37 36 36 35 34 34 33 33 32 32 32 32 31 31 31 31 32 32 32 33 33 32 33 33 33 33 33 33 34 34 35 36 36 37 38 38 39 40 41
45 44 42 41 39 38 37 37 36 35 35 35 34 34 34 33 33 33 33 33 33 34 34 34 34 34 34 34 34 34 35 35 35 36 37 37 38 39 40 40 41 42 43
46 46 45 43 42 40 39 39 38 37 36 36 36 35 35 35 35 35 35 35 36 36 36 36 36 36 36 36 36 36 36 36 37 38 39 39 40 41 42 42 43 44 45
47 47 47 46 44 43 42 41 40 39 38 38 37 37 37 37 37 37 37 38 38 38 38 38 38 37 37 37 37 37 38 38 39 40 40 41 42 43 44 44 45 46 47
48 48 48 48 46 45 44 43 42 41 40 40 39 39 39 39 39 39 39 39 39 39 38 39 39 39 38 38 39 39 39 40 40 41 42 43 44 44 45 46 47 48 48
49 50 49 49 48 47 46 45 44 43 43 42 42 42 41 41 41 40 40 40 40 40 40 40 40 40 40 39 40 40 41 41 42 43 44 45 45 45 46 47 48 49 49

GEFSGL_500_meanwind_108.txt.gz
Wind_Speed
10 10 10 11 11 12 12 12 13 13 13 12 11 11 11 10 10 9 8 7 5 4 4 4 5 7 8 11 13 14 16 18 20 21 22 24 26 26 27 28 29 30 30
11 11 10 11 11 11 12 12 12 12 12 12 11 11 11 10 10 9 8 7 6 5 5 5 5 6 8 10 12 14 16 17 19 20 21 23 25 26 27 28 28 28 30
12 11 11 11 11 11 11 11 11 11 11 11 11 11 11 10 9 9 8 7 7 6 6 6 6 6 8 9 11 13 15 17 18 20 20 21 23 24 26 27 29 29 29
14 13 12 12 11 11 11 11 11 11 11 11 11 11 11 10 9 9 9 8 7 7 7 7 7 7 8 9 10 12 14 16 17 19 20 21 22 23 24 25 27 29 29
16 15 14 13 12 12 11 11 11 11 11 11 11 11 11 10 10 9 9 9 8 8 8 8 8 7 8 8 10 12 13 15 16 17 19 20 21 22 23 23 24 25 26
18 17 17 16 15 14 13 12 12 11 11 11 11 11 11 10 10 10 10 9 9 9 9 8 8 8 8 8 9 10 12 13 14 16 17 18 19 20 22 23 24 24 26
20 19 19 18 17 16 15 14 13 12 12 12 11 11 11 11 11 10 10 10 10 10 10 10 9 9 8 9 9 9 11 12 13 14 15 16 18 19 20 22 23 24 25
22 21 21 20 19 18 17 16 15 14 13 13 12 12 12 11 11 11 11 11 11 11 11 11 10 10 10 10 10 10 11 11 13 14 15 16 16 17 18 20 21 22 24
24 23 23 22 22 21 19 18 17 16 15 14 14 13 13 12 12 12 12 11 11 11 11 11 11 11 11 11 11 11 12 12 13 15 15 15 16 17 18 20 21 22 24
26 26 25 24 24 23 22 21 19 18 17 16 15 15 14 14 13 13 13 12 12 12 12 12 11 11 12 11 12 12 12 13 14 15 16 17 17 18 19 20 21 22 23
29 28 28 27 26 25 24 23 22 21 20 19 18 17 16 15 15 14 14 14 13 13 12 12 12 12 12 12 12 13 13 14 15 15 16 17 18 19 20 21 22 23 24
31 30 30 29 29 28 26 26 25 23 22 21 20 19 18 17 17 16 15 15 15 14 14 13 13 12 12 12 13 13 14 15 16 16 17 18 19 20 21 22 23 24 24
33 33 32 32 31 30 29 28 27 26 24 23 22 21 20 19 18 18 17 17 16 16 15 15 14 14 14 14 14 15 15 16 16 17 18 19 20 21 22 23 24 24 25
35 35 35 34 33 32 31 30 29 28 26 25 24 23 22 21 20 20 19 19 18 17 17 16 16 15 15 15 15 16 16 17 17 18 19 20 21 22 23 24 24 26 27
38 37 37 36 36 34 33 32 31 30 29 27 26 25 24 23 22 21 21 20 20 19 19 18 17 17 17 17 17 17 17 18 18 19 20 21 22 23 24 25 26 27 28
40 39 39 39 38 37 35 34 33 32 31 30 28 27 26 25 24 23 23 22 21 21 20 20 19 19 19 19 19 19 19 20 20 21 22 23 24 25 26 27 28 29 30
42 42 41 41 40 39 38 36 35 34 33 32 31 29 28 28 27 26 25 24 24 23 22 22 21 21 21 21 21 21 21 22 23 23 24 25 25 26 27 28 29 30 31
44 44 43 43 42 41 40 38 37 36 35 34 33 32 30 29 28 28 27 26 25 25 24 24 23 23 23 23 23 23 23 24 24 25 25 26 27 28 29 30 31 32 33
46 45 45 45 45 43 42 41 39 38 37 36 35 34 33 31 30 29 28 28 27 26 26 25 25 25 25 25 25 25 25 26 26 26 27 28 29 30 31 32 33 34 35
49 47 47 47 47 46 44 43 42 40 39 37 36 35 35 33 32 31 30 29 28 28 27 27 27 27 26 27 27 27 27 28 28 28 29 30 30 31 32 33 34 35 35
51 50 49 49 48 47 46 45 44 42 41 39 38 37 36 35 33 33 32 31 30 29 28 28 28 28 28 28 28 29 30 30 30 30 31 32 32 33 33 34 35 35 36
51 52 52 51 50 50 48 47 46 44 43 41 40 39 38 37 35 34 33 32 31 30 30 29 29 29 29 30 30 31 31 32 32 32 33 33 33 34 35 36 36 37 38
50 52 52 52 52 52 51 50 48 46 45 44 42 41 39 38 36 35 34 33 33 32 31 30 30 30 30 31 31 32 32 33 33 34 34 35 35 36 37 37 38 39 40
49 51 51 52 52 52 52 51 50 48 47 46 45 43 41 40 38 37 36 35 34 33 32 32 31 31 32 32 33 33 34 34 35 36 36 37 37 37 38 39 40 41 41
47 49 50 51 52 52 52 52 51 49 48 47 46 45 44 42 41 39 37 36 35 34 34 33 33 33 33 33 33 34 35 36 36 37 37 37 38 38 39 40 41 42 42
45 46 48 49 50 51 52 52 51 50 48 48 47 46 45 44 43 42 40 38 37 36 35 34 33 33 34 34 35 35 36 36 36 37 38 38 39 40 40 41 42 42 43

GEFSGL_500_meanwind_114.txt.gz
Wind_Speed
14 14 14 14 13 13 13 14 14 14 13 13 13 12 11 10 9 9 8 7 6 5 4 5 6 7 8 9 10 11 13 15 17 18 19 20 22 24 26 27 28 29 30
15 15 15 15 15 14 14 14 14 13 13 13 12 12 11 10 9 9 8 7 6 5 5 5 6 6 7 9 10 11 12 15 17 18 19 20 20 22 24 26 26 27 29
17 17 17 17 16 16 15 15 15 14 13 13 13 12 11 10 9 9 8 7 6 6 5 5 6 6 7 9 10 11 12 14 16 18 19 20 21 21 23 25 26 26 28
18 18 18 18 18 18 17 17 16 15 14 14 13 13 12 11 9 9 8 8 7 6 6 6 6 6 7 8 10 10 11 13 15 17 18 20 21 21 22 23 25 26 27
20 20 20 20 20 20 19 19 18 17 16 15 14 13 12 11 10 10 9 8 7 7 7 7 7 7 7 8 9 10 11 12 14 15 17 18 20 22 22 23 24 26 26
22 22 23 23 22 22 22 21 20 19 18 17 16 15 14 13 11 11 10 9 9 9 8 8 8 8 8 8 9 9 10 11 13 15 16 18 19 21 22 22 23 24 25
25 25 25 25 25 25 24 24 23 22 21 20 19 17 16 15 14 13 12 11 10 10 10 9 9 9 8 9 9 10 11 11 12 14 15 16 18 19 21 22 22 23 24
27 27 27 27 27 27 27 26 26 24 23 22 21 20 18 17 16 15 14 13 13 12 11 11 10 10 9 9 10 11 11 12 13 14 15 15 16 17 19 21 22 23 24
30 30 30 30 30 30 29 28 28 27 26 25 24 23 21 20 18 17 16 15 15 14 13 12 12 12 11 11 11 11 12 12 13 14 15 16 16 17 18 19 21 22 23
33 33 33 32 32 32 32 31 30 30 29 28 26 25 24 23 21 20 19 18 17 16 15 14 14 13 13 12 12 12 12 13 13 14 15 16 16 17 18 19 21 22 23
36 36 35 35 35 34 34 34 33 32 31 31 29 28 27 26 25 23 22 20 19 18 17 16 15 15 14 14 14 14 14 14 14 15 15 16 17 18 19 20 21 22 23
39 39 39 38 38 37 36 36 35 35 34 33 32 30 29 28 27 26 25 23 22 20 20 18 17 17 16 16 16 15 15 15 15 15 16 16 16 18 19 20 21 22 22
42 42 42 41 40 39 38 37 37 37 36 35 34 33 31 30 30 29 28 26 25 23 22 21 20 19 19 18 17 17 16 16 16 16 16 16 16 17 19 19 21 22 23
45 44 44 43 42 41 40 40 39 38 38 37 36 35 34 33 32 31 30 29 28 26 25 24 23 22 21 20 20 19 18 18 18 17 17 17 18 18 19 20 22 23 24
46 46 45 45 45 44 42 41 41 40 40 39 38 37 36 35 34 33 32 31 30 29 27 26 25 24 23 22 22 21 20 20 20 20 19 19 19 19 20 21 22 23 24
47 47 47 47 47 47 46 44 44 43 42 42 40 39 38 37 36 35 34 34 32 31 30 29 27 26 25 25 24 23 23 22 22 21 21 21 21 21 22 22 23 24 25
48 48 48 48 49 49 48 47 46 45 44 43 42 41 40 39 38 37 36 35 34 33 31 30 29 28 27 26 25 25 24 24 24 23 23 23 23 24 24 24 25 26 27
50 50 49 49 49 50 50 48 47 46 45 45 44 43 42 41 40 39 38 38 36 34 33 32 31 30 29 28 27 27 26 26 25 25 25 25 25 26 26 26 27 28 29
50 50 50 50 49 49 50 49 48 47 47 46 46 45 44 43 42 41 40 38 37 36 35 34 33 32 31 30 29 29 28 27 27 26 26 27 27 27 27 28 29 29 30
49 49 50 49 48 47 48 49 49 49 48 47 47 47 47 46 45 43 41 39 38 37 36 35 34 33 32 31 30 30 29 29 28 28 28 28 28 28 29 29 30 31 31
49 48 48 48 47 47 47 48 50 50 49 49 49 49 49 48 46 45 43 42 40 39 38 37 35 34 33 33 32 31 30 30 29 29 29 29 29 29 30 30 31 32 32
48 47 46 46 46 46 47 48 49 50 49 49 50 51 50 49 48 46 45 44 42 41 40 38 37 36 35 34 33 32 31 30 30 30 30 30 31 31 31 32 32 33 33
46 46 46 45 46 46 47 48 49 50 50 50 51 52 51 51 50 47 46 45 44 42 41 39 38 36 35 34 33 33 32 32 31 31 31 31 32 32 32 33 33 34 34
46 45 45 45 45 46 47 48 49 50 50 50 52 53 53 52 51 49 47 46 46 44 42 40 39 37 36 35 34 34 33 33 32 32 32 32 32 32 33 33 34 34 35
45 45 45 44 44 44 45 46 48 49 50 49 50 52 53 53 51 50 48 47 46 45 44 42 40 39 37 35 35 34 34 33 33 32 32 32 33 33 33 34 34 35 36
44 43 43 43 42 43 43 44 45 47 47 47 48 49 51 52 52 51 48 47 47 47 45 44 42 40 38 37 36 35 34 33 33 33 32 33 33 33 34 35 35 36 36

GEFSGL_500_meanwind_120.txt.gz
Wind_Speed
16 17 17 18 18 18 18 18 18 18 18 17 17 16 16 15 14 13 12 10 9 9 8 8 8 9 10 11 12 13 13 15 16 18 19 21 23 23 24 25 26 28 28
17 18 18 19 19 19 19 20 20 19 19 18 18 17 16 16 15 14 13 11 10 9 8 8 8 8 10 10 11 13 13 14 16 17 18 20 22 23 24 24 25 27 28
19 19 20 20 21 21 21 21 21 21 20 20 19 19 18 17 16 15 14 13 12 10 10 9 9 9 10 10 12 13 14 14 16 18 18 19 21 23 24 24 25 26 27
21 21 22 22 23 23 23 23 22 22 22 22 21 20 19 18 17 16 15 14 13 12 12 11 11 11 11 11 12 13 14 14 16 17 18 19 20 21 23 24 25 26 27
23 23 24 24 25 25 25 25 25 24 24 23 23 22 22 21 19 18 17 16 15 14 14 13 13 13 12 12 13 14 14 15 16 17 17 19 19 20 21 23 24 24 25
25 26 26 27 27 27 27 28 27 27 26 26 25 24 23 23 22 21 20 18 17 17 16 15 15 14 14 14 14 14 14 15 17 18 19 20 21 21 21 21 22 23 24
28 29 29 29 30 30 30 30 30 30 29 28 27 26 25 24 24 23 22 21 20 19 18 18 17 17 16 15 15 15 15 16 17 18 19 19 20 21 21 21 22 22 24
31 32 32 32 32 33 33 33 32 32 32 31 30 29 28 27 26 25 25 25 23 22 21 20 19 19 18 18 17 17 17 16 16 17 18 20 20 20 21 21 21 22 22
35 35 36 36 35 36 36 35 35 35 34 34 33 32 31 29 29 28 28 27 26 25 24 22 22 21 21 20 19 19 18 18 18 17 18 18 19 20 20 20 21 21 22
39 39 39 39 39 39 39 38 38 37 37 37 36 35 34 32 31 30 30 29 28 27 26 25 23 23 22 22 21 20 20 19 19 19 18 18 18 19 19 20 20 21 22
41 41 41 41 41 41 41 41 41 40 40 39 38 37 36 35 33 32 32 31 30 29 28 27 26 25 24 24 23 22 21 20 20 19 19 19 19 19 19 20 21 21 22
43 43 43 43 43 43 43 43 42 42 42 41 41 40 39 37 36 35 34 33 33 31 30 30 29 28 27 26 25 24 23 22 22 21 21 20 20 20 20 20 21 21 22
45 45 45 45 45 45 44 44 43 43 42 42 42 41 40 39 38 37 36 35 34 34 32 31 31 30 29 28 28 27 26 25 24 23 23 23 22 21 21 21 22 22 22
47 46 46 46 45 45 44 44 43 43 43 43 43 42 42 40 40 39 38 37 37 36 34 33 33 32 31 30 29 28 27 27 26 25 25 24 23 23 22 22 22 22 22
48 47 47 47 47 46 45 44 44 43 44 44 43 42 42 42 41 41 41 39 38 38 37 36 35 33 32 32 31 30 28 28 28 27 27 26 25 24 24 23 23 23 23
49 49 48 48 48 48 47 46 45 44 44 44 44 44 43 43 42 42 42 42 41 40 39 37 36 35 34 33 32 31 30 29 29 29 28 27 27 26 26 26 25 25 25
51 50 50 50 49 49 48 48 48 47 45 45 45 45 44 44 44 44 44 44 43 42 41 39 38 37 35 34 34 32 32 31 30 30 29 28 28 28 27 27 27 27 27
51 51 52 51 50 50 49 49 48 48 47 46 47 47 47 46 46 46 46 45 45 45 42 41 40 38 37 36 35 34 33 32 31 31 30 29 28 28 28 28 28 27 28
53 52 52 52 51 50 49 49 48 47 46 46 47 48 48 47 46 46 47 47 46 46 44 42 41 40 38 37 36 35 34 33 32 32 31 30 29 29 29 28 28 28 28
54 53 52 51 50 49 49 48 48 47 46 45 45 47 48 48 47 47 47 47 47 46 45 44 43 41 39 38 37 36 35 34 33 32 31 30 30 30 29 29 28 28 29
53 52 51 51 50 50 49 49 48 47 46 44 44 45 47 48 47 47 48 49 49 47 46 46 44 43 41 40 39 38 36 35 34 32 31 31 30 30 29 29 29 29 29
52 52 51 50 49 49 48 48 48 47 46 45 44 44 45 47 48 48 48 49 49 48 47 47 46 45 44 42 41 39 37 36 35 33 32 31 31 30 30 29 29 29 29
53 52 50 49 49 48 48 48 47 45 45 45 44 43 44 45 46 47 48 48 48 48 49 48 47 47 46 44 42 41 39 37 35 34 33 32 31 31 30 30 29 29 29
51 51 50 49 49 49 47 46 45 44 43 43 43 43 43 43 45 46 48 48 48 47 48 49 48 47 47 46 45 43 41 39 37 35 34 33 32 31 30 30 30 29 29
50 49 49 49 48 47 45 44 43 42 41 40 40 41 41 42 43 44 46 47 46 46 46 47 48 47 47 46 45 44 42 40 38 36 35 34 32 32 31 30 29 29 29
50 49 48 47 45 44 42 41 40 39 38 38 38 39 39 39 40 42 43 44 44 44 45 46 46 47 47 46 45 44 43 41 39 37 36 35 33 32 31 30 29 29 29

GEFSGL_500_meanwind_126.txt.gz
Wind_Speed
14 15 16 17 18 19 20 20 20 21 21 21 21 21 21 21 20 19 18 17 16 15 14 13 12 12 12 12 12 13 14 15 15 16 17 17 18 19 20 22 23 23 25
16 17 18 18 20 21 21 22 22 23 23 23 23 22 22 22 21 20 20 19 17 16 15 14 14 13 13 13 13 13 14 15 15 16 17 17 17 19 20 21 22 23 24
18 19 20 20 21 22 23 24 24 25 25 25 24 24 24 23 22 22 21 20 19 18 17 16 15 15 15 15 15 14 15 15 15 16 17 18 18 18 20 21 22 23 24
19 21 22 23 24 25 25 26 26 27 27 27 27 26 26 25 25 24 23 23 21 20 19 18 17 17 17 16 16 16 16 16 17 17 17 18 19 19 19 21 22 22 23
22 23 24 25 26 27 28 28 29 29 29 29 29 29 28 28 27 27 26 25 24 23 21 20 20 19 19 18 18 18 18 18 19 18 18 19 20 20 20 21 22 23 23
24 25 26 27 28 29 30 31 31 31 31 31 31 31 31 30 30 30 29 28 27 26 25 23 22 22 21 21 21 20 20 20 20 20 19 19 20 21 22 21 21 22 23
25 27 27 28 30 31 32 33 33 33 34 34 34 34 33 33 33 33 32 31 30 29 28 27 25 24 24 23 23 22 22 22 22 22 21 21 21 21 23 23 22 22 23
28 29 31 32 33 34 35 35 35 36 36 36 37 36 36 36 35 35 34 34 33 32 31 30 29 27 26 26 26 25 24 24 23 23 23 22 22 22 23 23 23 23 24
31 32 34 35 36 36 37 38 38 38 38 39 39 39 38 37 37 36 36 35 35 34 33 32 32 31 29 28 28 27 27 26 25 25 24 24 23 23 24 24 24 23 24
33 35 36 37 38 38 39 40 41 41 41 41 41 40 40 39 38 38 38 37 37 36 35 34 34 33 32 32 31 30 29 28 28 27 26 26 25 24 24 24 24 24 24
37 38 39 40 41 41 42 42 43 43 42 42 41 41 40 39 39 39 39 39 39 37 36 36 35 34 34 34 33 32 31 30 29 29 28 28 27 26 25 24 25 25 24
39 41 42 42 43 43 44 44 44 44 43 43 43 42 40 40 39 39 39 39 40 39 38 37 36 36 36 35 35 34 33 32 31 30 30 29 28 27 27 26 25 25 25
42 43 43 44 44 44 45 45 45 45 45 44 43 43 42 41 40 40 40 39 40 40 39 38 37 37 37 37 36 35 35 34 33 32 31 30 29 29 28 28 27 26 26
44 44 45 45 45 45 46 46 46 46 46 45 45 44 43 42 41 41 41 41 40 40 40 39 39 38 39 38 38 37 36 35 34 33 33 32 31 31 30 29 28 28 28
46 45 46 46 47 47 47 47 47 47 47 47 46 46 46 45 44 43 43 43 43 42 41 41 40 39 39 39 37 37 37 36 35 34 33 33 33 32 31 30 30 29 29
47 47 48 48 48 49 49 48 48 49 49 49 48 48 47 47 46 44 43 43 43 43 42 41 41 41 40 40 39 38 38 38 36 36 35 34 33 33 32 31 30 29 29
49 49 49 49 49 50 50 51 51 50 50 50 49 48 48 46 45 44 43 42 42 42 42 41 41 42 41 41 41 39 39 38 38 37 36 35 34 33 33 32 31 30 30
50 50 50 50 51 52 53 53 53 52 51 49 48 48 47 46 45 44 43 42 42 41 41 41 42 42 43 43 42 41 39 39 39 38 38 37 36 35 34 33 33 32 31
51 51 52 52 53 54 55 54 54 53 52 50 48 47 47 46 45 44 43 42 42 42 42 41 41 42 43 43 43 42 41 40 40 40 39 38 38 37 36 35 34 33 32
53 54 54 55 55 55 55 55 54 53 52 51 49 48 47 45 44 43 43 42 42 42 43 41 40 41 43 43 44 43 42 41 40 40 40 40 38 37 37 36 35 34 33
55 56 57 57 56 56 56 56 55 54 52 51 49 48 47 45 45 44 44 43 43 44 44 43 41 41 43 43 44 44 42 42 41 41 41 40 39 38 38 37 36 35 34
58 58 58 58 57 57 57 56 55 53 52 51 49 48 47 46 45 45 44 44 44 44 44 44 42 41 42 43 44 44 43 42 42 42 41 41 40 40 39 38 37 35 34
59 59 59 58 58 57 57 56 54 53 51 50 49 49 48 47 45 44 43 42 42 41 41 42 41 40 40 43 43 44 43 43 43 43 42 40 41 40 39 38 37 35 34
60 60 59 58 57 57 56 54 53 52 51 50 49 49 48 47 45 43 41 39 38 38 39 39 40 38 38 40 41 42 43 42 43 43 44 42 40 40 39 38 37 36 35
61 60 59 57 56 55 54 53 53 52 51 49 48 47 46 45 43 40 37 36 35 35 36 36 36 37 37 37 39 40 40 42 42 44 44 43 42 41 40 39 38 37 36
60 58 57 56 55 54 53 52 51 50 48 47 45 44 43 41 39 37 35 34 33 33 34 34 34 35 36 36 36 37 39 40 42 43 44 43 41 40 40 39 39 38 37

GEFSGL_500_meanwind_132.txt.gz
Wind_Speed
8 8 10 11 12 13 14 15 16 17 18 19 20 20 21 21 21 21 20 20 19 19 17 16 16 15 14 14 14 14 14 15 16 17 18 19 20 21 22 23 24 25 27
9 10 11 13 14 15 16 17 17 18 19 20 21 22 22 23 23 23 22 22 21 20 19 19 18 17 17 16 16 16 16 17 18 19 20 20 21 22 23 23 24 25 27
11 12 14 15 16 16 17 18 19 21 22 22 24 24 25 25 25 25 24 24 23 22 21 21 20 20 19 19 19 19 18 19 19 20 21 21 21 22 23 24 24 25 26
13 14 16 17 18 19 19 21 22 23 24 25 26 27 27 27 27 27 26 26 25 24 24 23 22 22 21 21 21 21 21 21 21 22 22 22 22 22 23 24 25 26 26
15 17 18 19 20 21 22 23 25 26 27 28 29 29 30 30 30 29 29 28 28 27 27 26 25 25 24 24 24 23 24 24 24 24 24 24 24 24 24 25 26 27 27
18 19 20 21 22 23 25 26 28 28 29 30 31 32 32 32 32 32 31 31 31 31 30 30 29 28 27 27 27 26 26 26 26 26 26 26 26 26 26 26 27 27 28
20 21 22 24 25 26 28 29 30 31 32 33 34 34 35 35 35 35 35 34 34 34 34 33 32 32 30 30 30 30 29 28 28 28 28 28 29 29 28 28 28 28 29
22 23 25 26 28 29 31 32 33 34 35 36 37 37 37 37 38 38 38 38 38 37 37 36 35 34 34 33 33 32 32 31 31 31 31 31 31 31 31 30 30 29 29
25 26 28 29 31 32 33 34 35 36 37 38 39 39 40 40 40 41 40 40 39 38 38 38 38 37 36 36 35 34 35 35 35 34 34 34 34 33 34 33 32 32 31
28 29 30 32 33 34 35 36 38 39 40 41 41 41 42 42 42 42 42 41 40 40 40 40 40 39 38 37 37 36 36 36 37 36 36 36 36 35 36 36 34 34 34
30 32 33 35 36 36 38 39 40 41 42 42 42 42 42 43 43 43 43 42 41 41 41 41 40 40 40 39 39 38 37 37 37 38 38 38 38 37 37 38 36 35 35
34 35 36 37 38 39 40 42 43 43 43 43 43 43 43 44 45 45 44 43 43 43 42 41 41 40 41 40 40 39 38 38 38 39 39 38 39 39 39 39 38 37 37
36 37 38 39 41 42 43 44 44 44 45 44 44 44 45 45 46 46 46 45 45 44 43 42 42 42 41 41 41 41 40 39 39 40 40 40 39 40 40 40 40 39 38
38 39 40 41 43 44 44 45 45 46 46 46 46 46 46 47 47 47 47 47 47 46 44 43 43 42 42 41 42 42 42 42 41 41 41 41 41 41 41 41 41 41 40
40 41 42 44 45 45 46 46 47 48 48 48 48 48 48 48 49 49 49 48 47 46 45 44 43 42 42 42 42 43 44 44 43 43 42 42 43 42 42 42 42 42 42
42 44 45 46 47 47 48 48 49 49 49 49 49 50 51 51 51 50 50 49 48 47 46 45 44 43 43 42 42 42 43 44 43 44 44 43 43 43 42 43 43 43 43
45 46 47 48 48 49 49 49 49 49 50 50 51 52 53 53 53 52 52 50 49 47 47 46 45 44 43 42 42 42 42 43 44 44 43 43 44 44 44 44 43 43 43
46 47 48 48 49 50 51 51 52 52 51 51 52 53 54 55 55 54 54 52 50 49 48 46 45 44 43 43 43 42 42 42 43 43 42 43 44 45 44 45 44 43 44
47 49 50 50 51 52 52 53 53 53 53 53 54 55 56 56 56 56 55 54 52 51 49 47 45 44 43 43 43 42 41 42 42 43 41 42 44 45 45 46 45 44 44
50 51 51 52 53 54 54 55 55 55 55 56 56 57 57 57 57 56 55 54 52 51 50 47 45 44 43 44 44 43 42 41 42 43 42 43 45 46 47 46 46 46 45
53 54 54 54 55 55 56 57 57 57 57 58 58 59 59 59 58 56 55 53 51 50 49 47 45 43 43 42 44 44 42 42 43 43 44 43 45 47 47 46 47 47 46
55 56 56 56 57 57 57 58 58 59 59 60 60 60 59 59 58 56 54 52 50 49 47 46 44 42 42 42 42 43 42 41 42 43 43 42 43 46 47 47 46 46 46
57 57 58 59 59 59 59 59 60 60 60 60 60 59 58 57 56 54 52 50 49 47 46 45 44 42 42 42 41 41 41 40 38 39 40 40 41 42 44 46 46 45 44
59 59 60 61 61 61 61 61 60 60 60 60 59 59 57 56 54 52 50 49 47 44 43 43 42 40 40 40 38 38 38 38 36 36 37 37 39 40 42 44 45 44 44
61 61 62 62 62 62 62 61 61 60 59 59 58 57 56 54 52 50 48 47 45 42 41 41 39 37 36 36 34 33 34 35 34 34 35 37 37 37 39 41 43 43 42
62 63 62 62 62 62 61 61 60 59 58 57 56 55 54 52 49 47 46 44 42 41 39 38 37 35 33 32 32 32 33 34 33 32 32 34 35 35 37 38 40 42 41

GEFSGL_500_meanwind_138.txt.gz
Wind_Speed
6 7 8 9 10 11 13 13 14 15 16 17 18 18 19 19 20 21 22 22 22 22 22 21 21 20 19 19 19 18 18 17 17 17 18 19 20 21 23 24 25 26 27
7 8 9 10 12 13 14 15 16 17 18 19 19 20 21 22 23 23 24 24 24 24 24 24 24 23 22 22 21 21 21 21 20 19 20 21 22 22 23 25 26 28 28
9 10 11 12 13 14 15 17 18 19 20 21 21 22 23 24 25 25 25 26 26 26 26 25 25 25 24 24 24 24 24 24 23 23 23 24 24 25 25 26 27 28 29
10 11 12 14 15 16 17 18 19 20 21 23 23 24 25 26 27 27 28 28 28 28 28 28 27 27 27 27 27 27 27 26 26 26 27 27 27 28 28 28 28 30 31
12 13 14 15 17 17 19 20 21 22 24 24 25 26 27 28 28 29 30 30 30 30 30 30 31 30 30 30 30 29 29 29 29 29 30 30 30 30 31 31 31 31 32
14 15 16 17 18 20 21 23 23 24 25 26 27 28 29 30 30 31 31 32 32 32 33 33 34 34 33 33 32 32 32 32 32 32 33 33 33 33 33 33 33 34 34
15 17 18 19 20 22 23 24 26 26 27 28 29 31 32 32 32 33 33 34 35 35 36 36 36 36 35 34 34 33 33 34 34 34 34 34 35 35 36 36 37 36 35
18 19 20 21 23 24 26 27 28 28 29 30 32 33 34 35 35 36 36 37 37 37 37 38 37 37 36 36 35 35 35 34 34 35 35 35 36 37 37 38 39 39 39
20 21 22 24 25 27 28 29 30 31 32 33 34 35 36 37 38 38 39 39 39 39 39 39 39 38 38 38 37 37 36 36 36 36 37 36 37 38 38 39 39 40 40
22 23 25 27 28 29 30 31 32 33 34 35 36 37 39 39 40 40 40 40 40 40 41 41 41 41 41 40 39 39 38 38 38 38 38 38 38 39 39 39 40 40 41
25 26 28 29 30 32 33 33 35 35 36 37 38 40 41 41 42 42 41 42 42 42 42 42 43 43 43 41 41 40 40 40 40 40 39 38 38 39 39 39 40 41 41
28 29 31 32 33 34 35 36 37 38 38 40 41 42 42 43 43 43 43 44 44 44 45 45 45 45 44 43 42 42 42 42 40 40 40 38 38 39 39 40 40 41 42
31 32 34 34 35 36 37 38 39 40 41 42 43 43 44 44 44 45 45 45 45 46 46 47 47 46 45 44 44 44 43 43 41 40 39 39 38 39 40 41 41 42 42
34 35 35 36 37 38 39 40 41 42 43 44 44 45 45 45 46 46 47 47 47 47 48 49 49 47 46 45 45 43 43 43 43 41 40 39 39 40 42 43 43 44 44
35 36 37 38 39 40 40 41 43 44 44 45 46 46 47 47 48 49 49 50 50 50 50 50 49 48 47 46 45 44 43 44 44 44 42 41 41 42 44 46 45 45 45
37 38 39 39 40 41 42 43 45 45 46 47 47 48 49 50 50 51 52 52 52 52 52 51 50 50 49 48 47 46 46 45 45 45 45 44 43 44 45 46 45 45 45
39 40 41 41 42 43 44 45 46 47 48 48 49 50 51 51 52 53 53 53 53 54 54 53 52 51 50 49 48 48 48 47 46 46 46 45 45 45 45 45 45 44 45
41 42 42 43 44 45 46 47 48 49 49 50 51 52 53 53 54 55 55 55 55 56 56 55 54 53 52 51 50 49 48 47 47 46 46 46 46 45 45 45 45 44 45
42 43 44 45 46 47 49 49 50 51 51 52 53 54 55 56 56 57 58 58 58 57 57 56 55 54 53 52 51 49 48 47 46 46 45 45 45 44 44 45 45 45 45
44 45 46 47 48 49 50 50 52 53 54 55 55 56 57 58 58 58 59 59 59 59 58 57 56 55 54 51 50 48 47 45 45 44 43 43 43 42 42 43 44 44 44
46 47 48 49 50 51 51 52 54 55 56 56 57 58 59 60 60 60 60 60 60 59 58 57 56 55 53 51 49 47 45 43 43 42 41 41 41 40 40 41 42 42 42
47 48 49 50 51 52 54 54 56 57 57 58 59 60 61 61 61 61 61 61 60 59 58 56 55 54 52 50 48 46 44 41 40 39 38 39 39 38 38 38 38 39 39
50 51 52 53 53 54 55 57 59 60 60 60 61 62 62 62 62 62 61 60 60 59 58 56 54 53 50 48 46 44 41 40 39 39 38 37 37 37 37 36 36 35 36
52 53 54 55 56 57 58 59 60 61 62 62 62 62 63 62 62 61 60 60 59 58 56 54 52 50 47 45 43 41 40 39 38 38 36 35 35 34 33 33 33 33 33
55 56 57 58 59 59 60 61 62 62 62 62 62 62 62 62 61 59 58 58 56 54 52 50 47 45 43 42 40 38 37 36 36 35 34 32 32 31 30 30 31 31 31
57 58 59 60 61 61 62 63 63 62 62 62 62 61 60 59 58 56 55 53 51 49 47 45 43 41 40 38 37 35 34 34 34 33 32 31 29 28 27 27 28 29 30

GEFSGL_500_meanwind_144.txt.gz
Wind_Speed
6 6 6 5 4 4 5 6 7 8 10 10 11 12 13 14 14 15 16 16 16 16 16 16 16 16 16 15 16 16 17 18 18 19 19 20 21 21 22 22 22 24 25
5 6 6 5 5 6 7 8 9 10 11 12 13 14 14 15 16 16 17 17 17 18 18 18 18 18 18 18 19 19 20 20 21 21 22 23 24 25 25 25 25 25 26
6 7 7 7 7 8 9 10 11 12 13 14 14 15 16 17 17 18 18 18 19 20 20 20 20 21 21 21 21 22 22 23 23 23 24 25 26 27 27 27 27 27 27
7 8 8 8 8 9 10 11 12 14 15 15 16 17 18 18 19 19 20 20 21 22 22 23 23 23 24 24 24 24 25 25 25 26 26 27 28 29 30 30 30 29 29
9 9 9 10 10 11 11 13 14 15 16 17 18 19 20 20 21 21 22 23 24 24 25 26 26 26 27 27 27 27 28 28 28 29 30 31 31 32 33 33 33 33 33
11 11 12 12 13 13 14 15 16 17 18 18 19 20 22 23 24 24 25 26 26 27 28 29 29 29 29 29 30 30 31 31 32 33 34 34 34 34 34 35 35 35 36
12 13 14 14 15 15 16 17 18 19 19 20 21 22 24 25 26 26 27 28 29 30 30 31 31 31 31 32 32 33 33 34 35 36 36 35 35 35 36 37 37 37 37
15 14 15 16 16 17 18 19 20 22 23 23 25 26 26 27 28 29 30 30 31 32 33 33 33 33 33 34 34 35 36 37 38 38 37 36 36 36 37 38 38 39 39
16 17 17 18 18 20 21 22 23 24 26 27 28 28 29 29 31 32 32 33 34 34 34 34 35 35 36 37 37 38 38 39 39 39 39 38 38 39 39 39 39 40 40
18 18 19 20 21 23 24 25 26 27 28 29 30 30 31 32 34 35 35 36 36 36 35 36 37 38 39 39 40 41 41 40 41 41 41 40 40 41 40 41 41 41 42
21 22 22 23 25 26 27 28 29 30 31 31 32 33 34 35 36 37 38 38 38 38 38 38 40 41 41 42 42 43 43 43 43 43 42 42 43 43 42 42 42 43 43
24 25 26 27 28 29 30 31 32 32 33 33 34 35 36 37 38 39 39 39 40 40 40 41 42 43 43 43 45 45 45 45 45 44 44 44 44 44 43 43 43 44 44
26 28 28 29 30 31 32 33 33 34 35 35 36 37 38 39 40 41 41 41 42 42 43 44 44 45 45 46 47 47 48 47 47 46 46 45 45 44 43 43 43 43 44
29 30 31 32 33 34 34 35 36 36 37 37 38 39 40 41 42 43 43 44 44 45 46 46 46 47 48 49 49 49 50 49 48 47 46 46 45 44 44 45 44 44 43
31 32 33 34 35 36 37 37 38 38 39 40 40 41 42 43 44 45 46 46 47 47 48 48 48 49 50 51 51 51 50 48 48 48 47 47 46 45 45 45 46 46 45
33 34 35 36 37 38 38 38 39 40 41 41 42 43 44 45 46 47 47 48 48 48 49 49 50 51 52 52 52 52 51 50 49 48 47 47 46 46 46 46 46 47 46
35 36 37 37 38 39 39 40 40 41 42 43 44 45 46 47 48 48 48 49 49 50 50 51 52 52 53 52 52 52 52 51 50 50 48 48 48 48 47 47 47 47 47
37 38 38 39 39 40 41 42 42 43 44 45 46 47 48 49 50 50 50 50 50 51 52 53 53 54 54 53 54 54 53 52 52 51 50 49 49 48 48 48 47 46 47
37 39 40 40 41 42 42 43 44 45 46 47 48 50 51 51 51 51 51 52 53 53 54 54 55 55 55 55 55 54 53 53 51 50 49 49 48 47 47 47 46 45 46
39 40 42 43 43 44 45 46 47 48 49 50 51 52 52 53 52 53 54 55 55 55 56 56 56 56 56 55 55 54 53 52 50 49 48 48 48 47 46 45 44 44 44
43 43 44 45 46 47 47 48 49 50 50 51 52 53 54 54 54 55 55 56 57 57 57 57 56 56 55 55 55 54 52 51 49 48 47 47 47 45 44 43 42 41 41
45 46 47 47 47 48 49 50 51 51 52 53 54 55 55 56 56 57 57 58 58 58 58 57 56 56 56 55 55 54 52 51 49 47 46 44 43 42 41 40 39 39 38
47 48 48 49 49 50 51 51 52 53 54 55 56 57 57 57 58 58 59 59 58 58 58 58 57 56 56 55 54 52 50 48 46 44 42 39 37 36 36 36 35 35 35
50 50 51 52 52 53 53 54 54 55 56 57 58 58 58 58 59 59 59 58 58 58 58 58 56 55 54 53 51 48 46 44 42 40 38 37 35 34 33 33 34 34 34
52 53 53 54 54 54 55 56 56 57 58 58 59 59 59 59 59 58 58 58 58 57 57 56 54 53 51 49 47 44 42 41 40 39 38 35 34 33 33 32 31 31 31
53 54 54 55 55 56 56 57 58 59 59 60 60 60 59 58 58 57 57 57 57 56 55 53 50 48 47 45 43 42 41 40 39 38 36 34 32 31 31 31 30 29 29